Погода в Тунгокочене

Погода в Тунгокочене : погода сейчас, прогноз погоды и архив. Всё, что Вы хотите узнать о погоде в Тунгокочене!

Хотите узнать прогноз погоды в Тунгокочене? Тогда Вам сюда: Погода в Тунгокочене

Поиск расширенной информации на нашем сайте:

Другие новости

Новости СМИ2

Главная страница сайта

Новости сайта

02.10.2013

Напоминаем, что на нашем новом сайте вы можете получить высокодетализированные прогнозы погоды по пунктам России, СНГ и мира (включающие важные для авиации метеовеличины, такие как направление и скорость ветра, видимость, явления погоды, количество и форма облачности, нижняя и верхняя граница облачности), а также ознакомиться с разнообразными материалами по авиационной метеорологии и подборкой полезных ссылок на эту тему.

Сайт Метеоцентр.Азия посвящён разработке технологий оптимизации авиаметеорологического обслуживания, включая проектирование и перспективное создание нескольких автоматизированных авиаметеорологических систем:
- система выпуска высокодетальных прогностических карт явлений погоды для нижнего воздушного пространства по России и ближнему зарубежью;
- система верификации прогнозов TAF (выпускаемых синоптиками официальных АМСГ РФ и ближнего зарубежья) и AUTOTAF (выпускаемых сайтом Метеоцентр.Азия) - выявление ошибок, онлайн-сопоставление с фактической погодой METAR, автоматическое внесение коррективов в прогнозы при резком отклонении фактической погоды от прогноза, подсчёт оправдываемости прогнозов по элементам и в целом;
- система обработки, анализа и отображения авиаметеорологической информации для применения провайдерами метеорологической информации.

Рекомендуем: Как выбрать полотенцесушитель.

Погода в Тунгокочене - сегодня

Время (UTC), дата Ветер
(°,м/с) 
Видим.   Явления Облачность Т
(°С)
Тd
(°С)
f(%) Тe
(°С)
Pmin
(гПа)
dP
(гПа)
Po
(мм)
O2
(г/м3)
Тmin Tmax R s Состояние
почвы
09 27.04.17 300 (СЗ) 7-11{14}  20000 м    4/4 1000 м 
[Cu hum]
+16.8 -0.9 30 +16  1003.7  -3  685  260           
12 27.04.17 300 (СЗ) 4{14}  20000 м    10/0 средняя, верхняя 
[Ac lent|Ci fib]
+12.8 -5 29 +12  1004.8  -0.2  685  264    +17.5       
15 27.04.17 300 (СЗ) 20000 м    10/0 средняя, верхняя 
[Ac lent|Ci fib]
+8.2 -6.2 35 +8  1007.6  1.1  686  269           
18 27.04.17 290 (З) 20000 м    3/0 верхняя 
[Ci fib]
+8.4 -3.4 43 +8  1007.8  0.3  686  268           
21 27.04.17 280 (З) 20000 м    6/0 средняя, верхняя 
[Ac lent|Ci fib]
+2.5 -5.7 55 +3  1009.6  -0.4  685  274           
00 28.04.17 200 (Ю) 20000 м    10/3 1000 м средняя 
[Cu hum|As trans]
+7.2 -0.9 56 +7  1007  -0.7  685  269  +1.5         
03 28.04.17 270 (З) 20000 м    10/0 средняя, верхняя 
[Ac trans|Cs]
+12.7 +2.1 48 +12  1002.5  -2.4  683  263           
06 28.04.17 210 (ЮЗ) 6{12}  20000 м  дым  10/0 верхняя 
[Cs]
+18.4 +1.9 33 +18  994.8  -5.3  679  256           
09 28.04.17 240 (ЮЗ) 6-11{14}  20000 м  дым  10/0 средняя, верхняя 
[Ac lent|Cs]
+20.9 +2.6 30 +21  987.8  -5.6             
12 28.04.17 280 (З) 10-15{17}  20000 м  дым  10/1 600 м средняя, верхняя 
[Cu hum|Ac lent|Cs]
+17.4 -0.2 30 +17  990.2  1.1  676  256    +21.5       
15 28.04.17 270 (З) 6-11{13}  20000 м  дым  4/0 средняя, верхняя 
[Ac lent|Ci fib]
+14.2 -1.9 33 +13  991.9  0.6  676  259           
18 28.04.17 310 (СЗ) 7-11{13}  10 км  дым  3/0 верхняя 
[Ci fib]
+10.6 -6.2 30 +9  994.3  677  263           
21 28.04.17 320 (СЗ) 7-14{19}  20000 м  дым  3/0 средняя 
[Ac lent]
+6 -1 61 +3  999.3  3.1  679  268           
00 29.04.17 310 (СЗ) 10  20000 м    4/3 1000 м верхняя 
[Sc diur, vesp|Ci fib]
+6.6 -7.3 36 +3  1002.9  3.5  682  269  +5.3         
03 29.04.17 310 (СЗ) 10-15{17}  20000 м    8/8 1000 м 
[Sc diur, vesp]
+8.8 -5.1 37 +6  1004.8  2.4  684  267           
06 29.04.17 340 (С) 8-12{18}  20000 м    6/6 1000 м 
[Cu med, cong]
+10.9 -3.9 35 +9  1005.4  1.2  685  266           
09 29.04.17 350 (С) 6{14}  20000 м    3/3 1000 м 
[Cu hum]
+11.1 -3.9 35 +10  1005.9  0.6  685  266           
12 29.04.17 040 (СВ) 20000 м    8/0 средняя, верхняя 
[Ac lent|Ci fib]
+7.8 -7 34 +8  1008.9  1.6  686  269    +12.4       
15 29.04.17 310 (СЗ) 20000 м    4/0 средняя 
[Ac lent]
-2.5 -9.9 57 -2  1014.8  688  280           
18 29.04.17 тихо ()   20000 м    ясно 
-6.5 -9.7 78 -7  1017.4  0.9  688  285           
21 29.04.17 тихо ()   20000 м    3/0 средняя 
[Ac lent]
-9 -10.1 92 -9  1018.9  0.5  689  288           
03 30.04.17 200 (Ю) 20000 м  дым  10/0 верхняя 
[Ci fib]
+13.5 -4.1 29 +13  1006.6  -3.4  686  264           
06 30.04.17 190 (Ю) 5{12}  20000 м  дым  10/0 верхняя 
[Cs]
+16.8 -3.4 25 +17  1002.6  -2.6  684  260           
09 30.04.17 210 (ЮЗ) 5{12}  20000 м    10/3 1000 м верхняя 
[Cu med, cong|Ci fib]
+17.4 -2.1 26 +17  1001.3  -1  683  259           
12 30.04.17 190 (Ю) 20000 м  дым  10/0 средняя, верхняя 
[Ac cuf|Ci fib]
+14.6 +0.6 38 +14  1002.7  0.4  684  261    +18.3       
Время (UTC), дата Ветер
(°,м/с) 
Видим.   Явления Облачность Т
(°С)
Тd
(°С)
f(%) Тe
(°С)
Pmin
(гПа)
dP
(гПа)
Po
(мм)
O2
(г/м3)
Тmin Tmax R s Состояние
почвы

Для получения пояснительной информации подведите курсор к названию столбца.

ПОГОДА в Тунгокочене - архив

Всё, что Вы хотите узнать о погоде в Тунгокочене - удобно и подробно!

Выберите нужную дату (начиная с 1 января 2015* года) и нажмите кнопку "Найти".
Будут отображены архивные сводки погоды по пункту Тунгокочен, начиная с указанной даты.


Отображать данные в формате CSV (для использования в таблицах Excel)


Внимание! Наш архив погоды предназначен исключительно для личного некоммерческого использования в познавательных целях. Если Вам необходимы официальные справки о состоянии погоды (для производственных, юридических, коммерческих и т.п. целей), обращайтесь в органы Росгидромета.

*Примечание: данная дата относится к архиву по метеостанциям СССР (Россия, СНГ, Балтия).
Архив по метеостанциям Зарубежной Европы и Азии (кроме Китая) хранится 10 дней, по другим регионам земного шара (Китай, Африка, Америка, Австралия, Океания) - 1 день.

Тунгокочен - район местоположения метеостанции


Название, широта, долгота, высота метеостанции:
Тунгокочен 53.5°ш. 115.6°д. 811 м над ур. моря [Российская Федерация]

Дополнительная информация

В oтличие oт бoльшинства пoгoдных сайтoв мы публикуем пoдрoбную метеoинфoрмацию в детальнoм прoфессиoнальнoм фoрмате.

Характеристики температуры и влажнoсти вoздуха измеряются на высoте 2 м в тени вдали oт зданий и деревьев.
Скoрoсть ветра измеряется на высoте 10 м (на урoвне рoста челoвека скoрoсть ветра ниже в 1.5-2 раза). Если метеoстанция нахoдится в гoрoде или в лесу, тo скoрoсть ветра занижена на 2-4 м/с пo сравнению с oткрытым местoм. Скoрoсть ветра над акватoриями крупных рек и oзёр, а также на вершинах хoлмoв на 2-5 м/с выше, чем в oбычных услoвиях.
Атмoсфернoе давление в разных тoчках местнoсти мoжет значительнo oтличаться oт давления на метеoстанции, в зависимoсти oт услoвий рельефа (при пoдъёме на 10 м давление пoнижается примернo на 1 мм рт.ст.).